Location: Epalinges
(46.5518°N, 6.6683°E)
Time: 18:42:50
(UTC+00:00)

CZ-3B R/B - Pass Details

Date: 20 June 2021
Orbit: 339 x 17331 km, 54.9° (Epoch: 02 August)

Event Time Altitude Azimuth Distance (km) Brightness Sun altitude
Rises 00:39:22 0° 282° (WNW) 8,356 7.8 -18.5°
Reaches altitude 10° 00:47:38 10° 289° (WNW) 5,100 6.7 -18.1°
Maximum altitude 00:57:10 38° 356° (N) 1,290 4.2 -17.6°
Drops below altitude 10° 01:00:28 10° 68° (ENE) 1,761 5.0 -17.4°
Sets 01:01:56 0° 79° (ENE) 2,383 5.5 -17.3°
